www.pogodaiklimat.ru

Погода и климат >> Архив погоды >> Япония >> Кагосима


АРХИВ ПОГОДЫ в Кагосиме

Время (UTC), дата Ветер
(напр.,м/с)
 
Видим.   Явления Облачность Т
(С)
Тd
(С)
f
(%)
Тe
(С)
Тes
(С)
Комфортность P
(гПа)
Po
(гПа)
Тmin
(С)
Tmax
(С)
R
(мм)
R24
(мм)
S
(см)
21 18.08 СВ 3 5000 м ливневой дождь 10/10
[Cu med, cong]
+25.3 +24.4 95 +35 +35 очень
душно
1007.2 1003.6
00 19.08 С 3 8000 м слаб. ливневой дождь {гроза} 10/9
[Cu med, cong Ac As]
+25.5 +24.3 93 +35 +36 очень
душно
1008.0 1004.4 +24.7 13
03 19.08 СВ 3 8000 м слаб. ливневой дождь 10/8
[Cu med, cong Ac As]
+26.9 +24.9 89 +39 +40 очень
душно
1008.0 1004.4
06 19.08 СВ 5 8000 м дымка {ливн. осадки} 9/4
[Cu med, cong Ac As Ci sp]
+29.4 +24.7 76 +42 +44 опасность
перегрева
1006.9 1003.3 1
09 19.08 С 3 20 км {ливн. осадки} 9/3
[Cu med, cong Ac As Ci sp]
+28.0 +24.0 79 +39 +39 очень
душно
1006.7 1003.1
10 19.08 СВ 4 н/о н/о +27.6 +24.1 81 +38 +38 очень
душно
1007.2 1003.6
11 19.08 СВ 3 н/о н/о +27.5 +24.2 82 +38 +38 очень
душно
1007.5 1003.9
12 19.08 СВ 4 15 км в посл. час ливневой дождь 9/4
[Cu med, cong Ac As Ci sp]
+27.5 +24.2 82 +38 +38 очень
душно
1008.0 1004.4 +29.6 1
13 19.08 СВ 3 н/о н/о +27.5 +24.2 82 +38 +38 очень
душно
1008.2 1004.6
14 19.08 СВ 2 н/о н/о +27.6 +24.5 83 +39 +39 очень
душно
1008.3 1004.7
15 19.08 СВ 2 н/о н/о +27.0 +24.7 87 +38 +38 очень
душно
1007.9 1004.3
16 19.08 СВ 2 н/о н/о +27.2 +24.7 86 +39 +39 очень
душно
1007.7 1004.1
17 19.08 СВ 2 н/о н/о +27.3 +24.8 86 +39 +39 очень
душно
1007.2 1003.6
18 19.08 Ю 3 10 км слаб. ливневой дождь 10/6
[Cu med, cong Ac As]
+27.0 +25.8 93 +40 +40 очень
душно
1007.1 1003.5 1
19 19.08 ЮЗ 2 н/о н/о +26.9 +26.2 96 +41 +41 опасность
перегрева
1007.8 1004.2
20 19.08 ЮЗ 5 н/о н/о +26.7 +25.8 95 +40 +40 очень
душно
1007.7 1004.1
21 19.08 СВ 1 10 км слаб. ливневой дождь {гроза} 9/9
[Cb cap]
+26.9 +26.2 96 +41 +41 опасность
перегрева
1008.5 1004.9
22 19.08 Ю 2 н/о н/о +27.5 +26.6 95 +42 +42 опасность
перегрева
1009.6 1006.0
23 19.08 Ю 3 н/о н/о +28.1 +26.1 89 +42 +42 опасность
перегрева
1009.3 1005.7
00 20.08 ЮВ 3 10 км {гроза, ливн. осадки} 9/5
[Cb cap Ac As Ci sp]
+28.2 +26.6 91 +44 +46 опасность
перегрева
1009.9 1006.3 +26.6 14
01 20.08 ЮВ 4 н/о н/о +28.7 +26.5 88 +44 +44 опасность
перегрева
1009.8 1006.2
02 20.08 ЮВ 4 н/о н/о +29.9 +26.1 80 +45 +45 опасность
перегрева
1009.9 1006.3
03 20.08 ЮВ 5 25 км 9/1
[Cu med, cong Ac As]
+30.3 +26.5 80 +46 +50 опасность
перегрева
1009.6 1006.0
04 20.08 Ю 3 н/о н/о +30.6 +26.5 79 +47 +47 опасность
перегрева
1008.9 1005.4
05 20.08 Ю 4 н/о н/о +30.6 +26.5 79 +47 +47 опасность
перегрева
1008.6 1005.1
06 20.08 Ю 4 20 км {ливн. осадки} 9/3
[Cu med, cong Ac As]
+30.4 +25.7 76 +45 +47 опасность
перегрева
1008.6 1005.1 0.0
07 20.08 Ю 3 н/о н/о +30.3 +25.2 74 +44 +44 опасность
перегрева
1009.0 1005.4
08 20.08 Ю 2 н/о н/о +29.8 +26.2 81 +45 +45 опасность
перегрева
1009.2 1005.6
09 20.08 ЮВ 4 20 км {ливн. осадки} 9/3
[Cu med, cong Ac As]
+29.2 +26.4 85 +45 +45 опасность
перегрева
1009.6 1006.0
10 20.08 ЮВ 3 н/о н/о +28.6 +26.4 88 +44 +44 опасность
перегрева
1009.9 1006.3
11 20.08 Ю 4 н/о н/о +28.5 +25.9 86 +43 +43 опасность
перегрева
1010.6 1007.0
12 20.08 Ю 4 20 км {ливн. осадки} 6/1
[Cu med, cong Ci sp]
+28.2 +26.0 88 +42 +42 опасность
перегрева
1010.8 1007.2 +31.7 0.0
13 20.08 Ю 3 н/о н/о +28.4 +25.2 83 +41 +41 опасность
перегрева
1011.2 1007.6
14 20.08 ЮВ 1 н/о н/о +27.9 +25.5 87 +41 +41 опасность
перегрева
1011.1 1007.5
15 20.08 Ю 2 н/о н/о +27.9 +25.9 89 +42 +42 опасность
перегрева
1011.1 1007.5
16 20.08 Ю 5 н/о н/о +28.0 +25.6 87 +41 +41 опасность
перегрева
1010.7 1007.1
17 20.08 Ю 5 н/о н/о +27.8 +25.4 87 +41 +41 опасность
перегрева
1010.2 1006.6
18 20.08 Ю 3 20 км {ливн. осадки} 9/1
[Cu med, cong Ac As]
+27.5 +25.3 88 +40 +40 очень
душно
1010.2 1006.6 0.0
20 20.08 ЮВ 3 н/о н/о +27.4 +25.1 87 +39 +39 очень
душно
1010.4 1006.8
21 20.08 ЮВ 2 30 км 9/4
[Cu med, cong Ac trans Ci sp]
+27.5 +24.4 83 +39 +39 очень
душно
1010.5 1006.9
22 20.08 Ю 1 н/о н/о +28.2 +24.8 82 +40 +40 очень
душно
1010.9 1007.3
23 20.08 ЮВ 2 н/о н/о +28.9 +23.6 73 +39 +39 очень
душно
1011.1 1007.5
00 21.08 Ю 3 35 км 8/4
[Cu med, cong Ac trans Ci sp]
+29.8 +24.0 71 +41 +44 опасность
перегрева
1011.2 1007.6 +27.2 0.0
01 21.08 В 2 н/о н/о +29.5 +23.5 70 +40 +40 очень
душно
1011.4 1007.8
02 21.08 ЮВ 3 н/о н/о +30.7 +24.6 70 +43 +43 опасность
перегрева
1011.3 1007.7
03 21.08 ЮВ 3 35 км 6/1
[Cu med, cong Ac trans Ci sp]
+31.5 +23.6 63 +43 +54 опасность
перегрева
1010.8 1007.3
05 21.08 ЮВ 3 н/о н/о +31.7 +25.1 68 +45 +45 опасность
перегрева
1009.9 1006.4
06 21.08 ЮВ 4 35 км 6/3
[Cu med, cong Ac trans Ci sp]
+31.8 +23.9 63 +43 +48 опасность
перегрева
1009.7 1006.2
07 21.08 ЮВ 4 н/о н/о +30.8 +23.5 65 +42 +42 опасность
перегрева
1009.5 1006.0
09 21.08 ЮВ 3 40 км 9/8
[Cu med, cong Ci sp]
+30.5 +25.6 75 +45 +45 опасность
перегрева
1009.7 1006.1
10 21.08 СЗ 2 н/о н/о +30.3 +24.5 71 +43 +43 опасность
перегрева
1010.5 1006.9
11 21.08 Ю 2 н/о н/о +29.6 +23.3 69 +40 +40 очень
душно
1011.3 1007.7
12 21.08 Ю 2 25 км 6/3
[Cu med, cong Ci sp]
+28.7 +23.8 75 +40 +40 очень
душно
1011.9 1008.3 +32.8
13 21.08 ЮВ 1 н/о н/о +28.1 +24.3 80 +39 +39 очень
душно
1012.0 1008.4
15 21.08 ЮВ 2 н/о н/о +27.8 +24.2 81 +39 +39 очень
душно
1011.7 1008.1
16 21.08 ЮВ 2 н/о н/о +27.6 +24.7 84 +39 +39 очень
душно
1011.1 1007.5
17 21.08 Ю 2 н/о н/о +27.2 +24.9 87 +39 +39 очень
душно
1010.8 1007.2
18 21.08 Ю 2 25 км 4/3
[Cu med, cong Ci sp]
+27.1 +24.9 88 +39 +39 очень
душно
1010.7 1007.1
19 21.08 ЮВ 2 н/о н/о +27.1 +24.9 88 +39 +39 очень
душно
1010.5 1006.9
20 21.08 В 2 н/о н/о +27.4 +24.9 86 +39 +39 очень
душно
1010.6 1007.0
21 21.08 В 1 30 км 5/5
[Cu med, cong Ac trans]
+27.3 +25.0 87 +39 +39 очень
душно
1010.8 1007.2
22 21.08 Ю 1 н/о н/о +27.6 +24.5 83 +39 +39 очень
душно
1011.1 1007.5
23 21.08 В 2 н/о н/о +28.8 +25.2 81 +42 +42 опасность
перегрева
1011.2 1007.6
00 22.08 В 3 30 км 3/3
[Cu med, cong Ac trans Ci fib]
+29.4 +25.2 78 +43 +48 опасность
перегрева
1011.0 1007.4 +26.9
01 22.08 В 3 н/о н/о +29.3 +25.3 79 +43 +43 опасность
перегрева
1011.2 1007.6
02 22.08 ЮВ 4 н/о н/о +30.7 +25.5 74 +45 +45 опасность
перегрева
1010.6 1007.0
03 22.08 ЮВ 3 25 км в посл. час ливневой дождь 8/5
[Cu med, cong Ac trans Ci fib]
+31.0 +25.4 72 +45 +51 опасность
перегрева
1010.1 1006.6
04 22.08 СВ 2 н/о н/о +28.4 +25.8 86 +42 +42 опасность
перегрева
1010.0 1006.4
05 22.08 В 4 н/о н/о +29.8 +26.6 83 +46 +46 опасность
перегрева
1009.3 1005.7
06 22.08 ЮЗ 5 20 км слаб. ливневой дождь 9/8
[Cu med, cong Ac trans Ci fib]
+29.6 +26.2 82 +45 +46 опасность
перегрева
1009.2 1005.6 12
07 22.08 З 5 н/о н/о +30.8 +25.9 75 +46 +46 опасность
перегрева
1009.1 1005.6
08 22.08 ЮЗ 2 н/о н/о +31.1 +25.7 73 +46 +46 опасность
перегрева
1009.3 1005.8
09 22.08 З 4 30 км {ливн. осадки} 8/5
[Cu med, cong Ac trans Ci sp]
+30.9 +25.0 71 +44 +44 опасность
перегрева
1009.6 1006.1
11 22.08 ЮЗ 4 н/о н/о +29.0 +25.4 81 +43 +43 опасность
перегрева
1010.6 1007.0
12 22.08 З 2 30 км {ливн. осадки} 8/3
[Cu med, cong Ac trans Ci sp]
+28.5 +25.1 82 +41 +41 опасность
перегрева
1011.1 1007.5 +31.6 13
13 22.08 ЮЗ 1 н/о н/о +28.4 +25.2 83 +41 +41 опасность
перегрева
1011.1 1007.5
14 22.08 ЮЗ 2 н/о н/о +28.4 +25.4 84 +42 +42 опасность
перегрева
1010.9 1007.3
15 22.08 Ю 2 н/о н/о +28.2 +25.6 86 +42 +42 опасность
перегрева
1010.7 1007.1
16 22.08 ЮЗ 2 н/о н/о +27.3 +25.5 90 +40 +40 очень
душно
1010.5 1006.9
17 22.08 Ю 1 н/о н/о +26.7 +25.5 93 +39 +39 очень
душно
1010.3 1006.7
18 22.08 СВ 1 20 км {ливн. осадки} 9/6
[Cu med, cong Ac trans Ci sp]
+27.2 +26.2 94 +41 +41 опасность
перегрева
1010.1 1006.5 1
19 22.08 С 1 н/о н/о +27.0 +26.0 94 +40 +40 очень
душно
1009.8 1006.2
20 22.08 Ю 2 н/о н/о +27.1 +26.1 94 +41 +41 опасность
перегрева
1010.0 1006.4
21 22.08 З 2 15 км 9/3
[Cu med, cong Ac trans Ci sp]
+27.4 +25.4 89 +40 +40 очень
душно
1010.5 1006.9
22 22.08 ЮЗ 2 н/о н/о +28.2 +25.6 86 +42 +42 опасность
перегрева
1011.2 1007.6
23 22.08 ЮЗ 2 н/о н/о +28.7 +25.3 82 +42 +42 опасность
перегрева
1011.4 1007.8
00 23.08 ЮЗ 4 20 км 9/5
[Cu med, cong Ac As Ci sp]
+29.7 +25.2 77 +43 +45 опасность
перегрева
1011.5 1007.9 +26.7 1
01 23.08 ЮЗ 3 н/о н/о +28.6 +26.0 86 +43 +43 опасность
перегрева
1011.9 1008.3
02 23.08 З 3 н/о н/о +30.4 +26.4 79 +46 +46 опасность
перегрева
1011.4 1007.8
03 23.08 З 5 20 км слаб. ливневой дождь 9/6
[Cu med, cong Ac trans Ci sp]
+31.1 +25.5 72 +45 +48 опасность
перегрева
1011.0 1007.5
04 23.08 З 5 н/о н/о +31.2 +25.8 73 +46 +46 опасность
перегрева
1010.8 1007.3
05 23.08 З 5 н/о н/о +30.9 +25.5 73 +45 +45 опасность
перегрева
1010.8 1007.2
06 23.08 З 4 20 км в посл. час ливневой дождь 9/4
[Cb cap Ac trans Ci ing]
+30.8 +25.2 72 +45 +47 опасность
перегрева
1009.9 1006.4 0.5
07 23.08 З 4 н/о н/о +31.1 +25.2 71 +45 +45 опасность
перегрева
1009.8 1006.3
08 23.08 З 5 н/о н/о +30.7 +24.8 71 +44 +44 опасность
перегрева
1009.9 1006.4
09 23.08 З 4 30 км 9/4
[Cu med, cong Ac trans Ci fib]
+30.4 +25.2 74 +44 +44 опасность
перегрева
1010.5 1006.9
11 23.08 З 3 н/о н/о +29.1 +25.1 79 +42 +42 опасность
перегрева
1011.0 1007.4
12 23.08 ЮЗ 3 10 км слаб. ливневой дождь 10/10
[Cu med, cong]
+27.1 +25.5 91 +40 +40 очень
душно
1011.4 1007.8 +32.8 7
13 23.08 В 1 н/о н/о +27.3 +26.1 93 +41 +41 опасность
перегрева
1011.5 1007.9
14 23.08 З 5 н/о н/о +25.5 +24.5 94 +36 +36 очень
душно
1012.1 1008.5
15 23.08 ЮЗ 3 н/о н/о +25.7 +25.0 96 +37 +37 очень
душно
1012.1 1008.5
16 23.08 Ю 1 н/о н/о +25.6 +25.1 97 +37 +37 очень
душно
1011.5 1007.9
17 23.08 В 1 н/о н/о +25.8 +25.1 96 +37 +37 очень
душно
1011.0 1007.4
18 23.08 С 1 10 км слаб. ливневой дождь {гроза} 10/8
[Cu med, cong Ac As]
+26.1 +25.4 96 +38 +38 очень
душно
1011.1 1007.5 32
19 23.08 СВ 2 н/о н/о +26.0 +25.3 96 +38 +38 очень
душно
1011.0 1007.4
20 23.08 С 2 н/о н/о +26.0 +25.3 96 +38 +38 очень
душно
1010.9 1007.3
21 23.08 С 1 10 км в посл. час ливневой дождь 9/8
[Cu med, cong Ac As]
+26.0 +25.5 97 +38 +38 очень
душно
1011.2 1007.6
22 23.08 С 1 н/о н/о +26.6 +26.1 97 +40 +40 очень
душно
1011.3 1007.7
23 23.08 ЮВ 1 н/о н/о +28.4 +26.2 88 +43 +43 опасность
перегрева
1011.6 1008.0
00 24.08 ЮВ 3 20 км осадки на расстоянии {ливн. осадки} 9/9
[Cb calv]
+28.9 +25.7 83 +43 +44 опасность
перегрева
1011.8 1008.2 +25.3 33
02 24.08 В 2 н/о н/о +29.2 +26.0 83 +44 +44 опасность
перегрева
1012.1 1008.5
03 24.08 З 3 30 км в посл. час ливневой дождь 9/6
[Cu med, cong Ac As Ci sp]
+30.5 +25.6 75 +45 +49 опасность
перегрева
1011.7 1008.1
04 24.08 З 6 н/о н/о +28.9 +25.7 83 +43 +43 опасность
перегрева
1011.8 1008.2
05 24.08 СЗ 5 н/о н/о +26.8 +25.4 92 +39 +39 очень
душно
1011.4 1007.8
06 24.08 З 3 30 км слаб. ливневой дождь {гроза} 9/9
[Cb calv]
+28.4 +26.0 87 +43 +44 опасность
перегрева
1011.2 1007.6 7
08 24.08 З 3 н/о н/о +30.1 +25.8 78 +45 +45 опасность
перегрева
1011.3 1007.7
09 24.08 СЗ 3 20 км {ливн. осадки} 9/6
[Cb calv Ac trans Ci sp]
+29.3 +25.5 80 +43 +43 опасность
перегрева
1011.3 1007.7
10 24.08 ЮЗ 3 н/о н/о +28.7 +25.3 82 +42 +42 опасность
перегрева
1011.6 1008.0
11 24.08 Ю 2 н/о н/о +27.5 +25.9 91 +41 +41 опасность
перегрева
1011.7 1008.1
12 24.08 В 2 10 км в посл. час ливневой дождь 9/9
[Cb cap Ac trans Ci sp]
+26.9 +26.0 95 +40 +40 очень
душно
1012.5 1008.9 +32.2 9
13 24.08 Ю 4 н/о н/о +26.3 +25.6 96 +39 +39 очень
душно
1012.4 1008.8
14 24.08 Ю 2 н/о н/о +26.1 +25.2 95 +38 +38 очень
душно
1012.3 1008.7
15 24.08 Ю 2 н/о н/о +26.4 +25.5 95 +39 +39 очень
душно
1012.3 1008.7
16 24.08 С 1 н/о н/о +26.4 +25.4 94 +38 +38 очень
душно
1011.8 1008.2
18 24.08 СЗ 1 10 км слаб. ливневой дождь {гроза} 10/10
[Cu med, cong]
+26.0 +25.3 96 +38 +38 очень
душно
1011.8 1008.2 8
19 24.08 В 1 н/о н/о +26.0 +25.5 97 +38 +38 очень
душно
1011.7 1008.1
20 24.08 штиль 0 н/о н/о +26.0 +25.5 97 +38 +38 очень
душно
1011.7 1008.1
21 24.08 СЗ 1 10 км слаб. ливневой дождь 10/8
[Cu med, cong Ac As]
+26.0 +25.5 97 +38 +38 очень
душно
1012.2 1008.6
22 24.08 С 1 н/о н/о +26.3 +25.3 94 +38 +38 очень
душно
1012.6 1009.0
23 24.08 СВ 3 н/о н/о +25.9 +25.0 95 +37 +37 очень
душно
1013.1 1009.5
00 25.08 СВ 4 10 км слаб. ливневой дождь 10/8
[Cu med, cong Ac As]
+25.5 +24.6 95 +36 +36 очень
душно
1013.4 1009.8 +25.3 13
01 25.08 С 5 н/о н/о +25.8 +23.9 89 +35 +35 очень
душно
1014.3 1010.7
02 25.08 СВ 3 н/о н/о +25.0 +23.6 92 +34 +34 очень
душно
1014.6 1011.0
03 25.08 С 3 10 км слаб. ливневой дождь 10/8 300 м
[Cu med, cong Ac As]
+25.1 +22.8 87 +33 +34 очень
душно
1014.3 1010.7
04 25.08 С 1 н/о н/о +25.1 +22.8 87 +33 +33 очень
душно
1013.5 1009.9
05 25.08 С 1 н/о н/о +25.5 +23.7 90 +35 +35 очень
душно
1013.6 1010.0
06 25.08 С 2 15 км слаб. ливневой дождь 10/8 300 м
[Cu med, cong Ac As]
+26.1 +24.3 90 +36 +37 очень
душно
1013.1 1009.5 3
07 25.08 В 1 н/о н/о +26.0 +23.7 87 +35 +35 очень
душно
1012.6 1009.0
08 25.08 В 2 н/о н/о +26.0 +24.1 89 +36 +36 очень
душно
1013.3 1009.7
09 25.08 СВ 1 20 км в посл. час ливневой дождь 10/10
[Cu med, cong]
+26.1 +24.0 88 +36 +36 очень
душно
1013.5 1009.9
10 25.08 СВ 2 н/о н/о +25.9 +23.8 88 +35 +35 очень
душно
1013.7 1010.1
11 25.08 С 2 н/о н/о +25.8 +23.9 89 +35 +35 очень
душно
1014.1 1010.5
12 25.08 С 1 20 км {ливн. осадки} 9/3
[Cu med, cong Ac As]
+25.7 +24.1 91 +36 +36 очень
душно
1014.5 1010.9 +26.6 3
13 25.08 штиль 0 н/о н/о +25.5 +24.1 92 +35 +35 очень
душно
1013.9 1010.3
14 25.08 З 1 н/о н/о +25.5 +24.3 93 +35 +35 очень
душно
1013.9 1010.3
15 25.08 С 2 н/о н/о +25.1 +24.1 94 +35 +35 очень
душно
1013.4 1009.8
17 25.08 С 1 н/о н/о +25.4 +24.4 94 +35 +35 очень
душно
1012.8 1009.2
18 25.08 С 2 20 км слаб. ливневой дождь 9/6
[Cu med, cong Ac As]
+25.4 +24.4 94 +35 +35 очень
душно
1012.7 1009.1 0.0

 

Местоположение метеостанции Кагосима (Япония): широта 31.55 долгота 130.55 высота над уровнем моря 32 м.

В архиве по умолчанию представлена погода в Кагосиме за последнюю неделю. Архивные данные за месяц целиком и за предыдущие месяцы, начиная с января 2011 года, Вы можете получить, выбрав интересующий диапазон дат из раскрывающегося списка и нажав кнопку "Ввод!".


*Определитесь, кто Вы:
робот инопланетянин человек

Внимание! Время в таблицах - всемирное. Для получения местного времени необходимо прибавить поправку, которая равна 9 ч.

Смотрите также архив погоды в соседних городах и на ближайших метеорологических станциях:

Погода в Макурадзаки (Япония) (39 км)
Погода в Ушибуке (Япония) (53 км)
Погода в Мияконодзё (Япония) (54 км)
Погода в Акуне (Япония) (63 км)
Погода в Хитоёси (Япония) (77 км)
Погода в Абурацу (Япония) (81 км)
Погода в Миядзаки (Япония) (92 км)
Погода на Танегасиме (Япония) (100 км)
Погода на Якусиме (Япония) (131 км)
Погода на Ундзэне (Япония) (134 км)

Пояснения к столбцам:

Ветер - указаны скорость ветра в м/с - средняя за 10 мин, порывы в срок и между сроками (в фигурных скобках) и направление, откуда дует ветер: С - северный, СВ - северо-восточный, В - восточный, ЮВ - юго-восточный, Ю - южный, ЮЗ - юго-западный, З - западный, СЗ - северо-западный.
Видимость - горизонтальная дальность видимости в метрах или километрах. При видимости от 1 до 10 км при отсутствии осадков обычно наблюдается дымка, при ухудшении видимости до 1 км и менее - туман. В сухую погоду видимость может ухудшаться дымом, пылью или мглою.
Явления - указаны атмосферные явления, наблюдавшиеся в срок или в последний час перед сроком; фигурными скобками обозначены явления, наблюдавшиеся между сроками (за 1-3 часа до срока); квадратными скобками обозначены град или гололедные отложения с указанием их диаметра в мм.
Облачность - указаны через наклонную черту общая и нижняя облачность в баллах и высота нижней границы облаков в метрах; квадратными скобками обозначены формы облаков: Ci - перистые, Cs - перисто-слоистые, Cc - перисто-кучевые, Ac - высококучевые, As - высокослоистые, Sc - слоисто-кучевые, Ns - слоисто-дождевые, Cu - кучевые, Cb - кучево-дождевые. Подробнее классификацию облаков см. в Атласе облаков (PDF).
T - Температура воздуха - температура, измеренная на высоте 2 м над землей.
Td - Температура точки росы - температура, при понижении до которой содержащийся в воздухе водяной пар достигнет насыщения.
f - Относительная влажность воздуха - влажноcть воздуха, измеренная на высоте 2 м над землей.
Te - Эффективная температура - температура, которую ощущает одетый по сезону человек в тени. Характеристика душности погоды. При расчете учитывается влияние влажности воздуха и скорости ветра на теплоощущения человека.
Tes - Эффективная температура на солнце - температура, которую ощущает человек, с поправкой на солнечный нагрев. Характеристика знойности погоды. Зависит от высоты солнца над горизонтом, облачности и скорости ветра. Ночью, в пасмурную погоду, а также при ветре 12 м/с и более поправка равна нулю.
P - Атмосферное давление - приведенное к уровню моря атмосферное давление.
Po - Атмосферное давление - измеренное на уровне метеостанции атмосферное давление.
Tmin - Минимальная температура - минимум температуры воздуха на высоте 2 м над землей.
Tmax - Максимальная температура - максимум температуры воздуха на высоте 2 м над землей.
R - Количество осадков - Количество выпавших осадков за период времени, мм. При наведении курсора мыши на число - период времени, за который выпало указанное количество осадков.
R24 - Количество осадков - Количество выпавших осадков за 24 часа, мм.
S - Снежный покров - Высота снежного покрова, см. При наведении курсора мыши на число - состояние снежного покрова и степень покрытия местности в баллах.